Location: Crescent
(42.8242°N, 73.7329°W)
Time: 17:25:37
(UTC+00:00)

Courier 1B - Pass Details

Date: 23 February 2026
Orbit: 962 x 1208 km, 28.3° (Epoch: 8 March)

Event Time Altitude Azimuth Distance (km) Brightness Sun altitude
Rises 02:17:53 0° 254° (WSW) 3,906 11.1 -40.4°
Reaches altitude 10° 02:21:19 10° 239° (WSW) 2,992 10.3 -41.0°
Enters shadow 02:22:41 14° 230° (SW) 2,703 9.9 -41.2°
